Simultaneous Nadir Overpasses (SNOs) Predictions

Prediction of SNOs between LANDSAT-8 and METOP-B Satellite Orbit:

Table of predicted SNOs for the next 14.0 days since TLE Epoch: 5/1/2015
Index Date (LANDSAT-8) Time (LANDSAT-8) Lat,Lon (LANDSAT-8) SZA (LANDSAT-8 ) Date (METOP-B) Time (METOP-B) Lat,Lon (METOP-B) SZA (METOP-B ) Distance(km) Time Diff (sec)
1 05/02/2015 03:29:41 -81.02, -14.79 112.26 05/02/2015 03:28:54 -81.02, -14.85 112.28 1.02 47
2 05/02/2015 04:19:06 81.05, 153.30 67.81 05/02/2015 04:19:32 81.05, 153.34 67.83 0.90 26
3 05/04/2015 23:03:52 -81.04, 51.95 113.03 05/04/2015 23:03:14 -81.04, 52.09 113.03 2.45 38
4 05/04/2015 23:53:18 81.04,-140.34 66.98 05/04/2015 23:53:54 81.04,-140.47 66.98 2.18 36
5 05/07/2015 18:38:04 -81.02, 118.17 113.84 05/07/2015 18:37:36 -81.03, 118.24 113.84 1.39 28
6 05/07/2015 19:27:29 81.05, -73.79 66.21 05/07/2015 19:28:15 81.05, -73.96 66.21 2.99 46
7 05/10/2015 14:12:13 -81.05,-175.06 114.54 05/10/2015 14:11:55 -81.05,-174.91 114.53 2.43 18
8 05/10/2015 15:01:39 81.05, -7.39 65.46 05/10/2015 15:02:35 81.05, -7.49 65.47 1.78 56
9 05/13/2015 09:46:24 -81.03,-108.80 115.28 05/13/2015 09:46:17 -81.03,-108.86 115.29 1.06 7




NCC Satellite Simultaneous Nadir Overpasses (SNOs) Prediction Service
